[[{"header":{"parameterUnit":"m.s-1","parameterCategory":1,"la1":30.2991,"la2":30.254,"lo1":-89.0895,"lo2":-89.0444,"dy":0.0017,"dx":0.0017,"nx":28,"ny":28,"refTime":"2025-05-17T03:00:00:Z","depth":0,"parameterNumber":2,"parameterNumberName":"U-component_of_WINDS"},"data":[0,0,0,0,0,0,0,0,0,0,0,0,0,0,0,0,0,0,0,0,0,0,0,0,0,0,0,0,0,0,0,0,0,0,0,0,0,0,0,0,0,0,0,0,0,0,0,0,0,0,0,0,0,0,0,0,0,0,2.9943,2.9944,0,3.0006,3.0006,3.0007,2.9962,2.996,2.9958,2.9956,3.0021,3.0024,3.0028,0,0,0,0,0,0,0,0,0,0,0,0,0,2.9785,2.9788,2.9943,2.9944,2.9945,3.0005,3.0006,3.0007,2.9962,2.996,2.9957,2.9955,3.0019,3.0024,3.0028,0,0,0,0,0,0,0,0,0,0,0,0,0,2.9851,2.9789,2.9943,2.9929,2.9929,3.0005,3.0006,3.0007,2.9963,2.9959,2.9956,2.9954,3.0018,3.0023,3.0029,3.0122,0,0,3.0045,3.0047,0,0,0,0,0,0,0,0,2.9847,2.9857,2.9931,2.993,2.993,2.9973,2.9974,3.0046,2.9963,2.995,2.9956,2.9952,3.0007,3.0013,3.0032,3.0125,3.0128,3.0046,3.0049,3.0051,3.0053,0,0,0,0,0,0,0,2.9843,2.9854,2.9968,2.9932,2.9931,2.992,2.9926,2.9988,2.9995,2.9951,2.9948,2.9956,3.0006,3.0027,3.0033,3.0129,3.0045,3.005,3.0054,3.0056,3.0301,3.0304,0,0,0,0,0,0,2.9839,2.985,2.9966,2.997,2.988,2.9926,2.9932,2.9962,2.9994,2.9996,2.9958,2.9953,3.0019,3.0027,3.0035,3.0145,3.0051,3.0056,3.0059,3.0298,3.0302,3.0305,0,0,0,0,0,0,2.9836,2.985,2.9963,2.9909,2.9923,2.9931,2.9965,2.9965,2.9985,2.9999,3.0,2.9977,3.0017,3.0027,3.01,3.0147,3.0059,3.0064,3.0294,3.0299,3.0303,3.0368,0,0,0,0,0,0,2.9832,2.9849,2.9885,2.991,2.9926,3.0028,2.9968,2.9968,2.9994,2.9988,3.0018,3.002,3.0015,3.0093,3.0106,3.0153,3.0068,3.029,3.0296,3.0302,3.0361,3.0374,3.0385,0,0,0,0,0,2.9826,2.9901,2.9887,2.9901,2.9971,3.0031,3.004,3.0033,2.9998,3.0034,3.0043,3.0019,3.014,3.01,3.0115,3.0164,3.0287,3.0294,3.0301,3.0356,3.0372,3.0385,0,0,0,0,0,0,2.9881,2.9904,2.9889,2.9974,3.0001,3.0023,3.0068,3.005,3.0087,3.008,3.007,3.0077,3.0153,3.0166,3.0122,3.0256,3.0208,3.0218,3.0244,3.0259,3.0271,3.0266,3.0072,0,0,0,0,0,2.9903,2.995,2.9967,3.0041,3.0055,3.0059,3.0085,3.0078,3.0105,3.0116,3.0131,3.0158,3.0202,3.0232,3.0273,3.0363,3.0368,3.0404,3.0416,3.0426,3.0435,3.0482,3.0498,3.0329,3.0329,3.0329,0,0,2.9949,2.9967,2.9998,3.0052,3.0072,3.0121,3.0069,3.0123,3.0159,3.0124,3.0194,3.0206,3.0236,3.0317,3.0354,3.033,3.0483,3.0435,3.0443,3.0447,3.0491,3.0507,3.0521,3.0334,3.0333,3.0333,0,0,3.0057,3.0076,3.0139,3.0159,3.019,3.0192,3.0207,3.0232,3.0238,3.0308,3.0283,3.0325,3.0402,3.0424,3.0445,3.0561,3.054,3.0575,3.0637,3.0683,3.0696,3.0708,3.0748,3.0763,3.0584,3.0585,3.0585,0,3.011,3.0182,3.0173,3.0228,3.0253,3.0224,3.0287,3.0308,3.035,3.0368,3.0341,3.0435,3.0454,3.054,3.0568,3.0586,3.0603,3.0572,3.0695,3.0707,3.0718,3.0756,3.0771,3.0589,3.0588,3.0588,3.0587,0,3.0245,3.0296,3.0342,3.0384,3.0414,3.0473,3.0472,3.0504,3.0494,3.0499,3.0569,3.059,3.0635,3.0655,3.0646,3.0739,3.0724,3.0696,3.0648,3.0738,3.0773,3.0788,3.0594,3.0593,3.0592,3.0591,0,0,3.0389,3.0424,3.0442,3.0459,3.0491,3.0529,3.0587,3.063,3.0657,3.0687,3.0735,3.08,3.0774,3.0799,3.0792,3.0833,3.0921,3.08,3.08,3.0821,3.1024,3.1044,3.1061,3.0908,3.0911,3.0913,3.1021,0,3.0498,3.0597,3.0591,3.0685,3.073,3.0703,3.0753,3.0778,3.0784,3.0824,3.0831,3.0877,3.084,3.0854,3.0894,3.0902,3.0962,3.0895,3.0951,3.0953,3.0943,3.108,3.1101,3.1202,3.1035,3.1038,3.1039,0,3.0637,3.0672,3.077,3.0794,3.0813,3.0858,3.0896,3.0935,3.0962,3.0964,3.099,3.0977,3.1034,3.0985,3.1064,3.1018,3.1041,3.1049,3.1052,3.1056,3.1001,3.1086,3.1234,3.1249,3.1061,3.106,3.1058,0,3.0731,3.0802,3.087,3.0886,3.0916,3.0948,3.0962,3.0986,3.1012,3.1046,3.1062,3.1103,3.1125,3.1157,3.1154,3.1118,3.1234,3.1184,3.1236,3.1236,3.1261,3.1259,3.1413,3.1278,3.1277,3.1277,3.1277,0,3.0852,3.0913,3.0912,3.0953,3.1021,3.1013,3.1079,3.109,3.1111,3.1154,3.1134,3.1174,3.1169,3.1209,3.1208,3.1273,3.1283,3.1286,3.1284,3.1287,3.1286,3.1301,3.1293,3.1281,3.128,3.1279,3.1279,0,3.0967,3.0969,3.1041,3.1063,3.107,3.1118,3.1137,3.1176,3.118,3.1235,3.1247,3.1254,3.1301,3.1301,3.1355,3.1354,3.1433,3.1424,3.1424,3.1421,3.1472,3.1467,3.164,3.1662,3.1514,3.1515,3.1516,0,3.1044,3.109,3.1116,3.1143,3.1159,3.1203,3.1229,3.1224,3.1252,3.1286,3.1321,3.1366,3.1401,3.1477,3.1487,3.1527,3.1519,3.1577,3.1525,3.1525,3.1518,3.1515,3.1519,3.1587,3.1588,3.159,3.1591,0,3.1179,3.1177,3.1216,3.1255,3.1287,3.1318,3.1346,3.1369,3.1367,3.1399,3.1447,3.1474,3.1529,3.1573,3.1612,3.1626,3.1608,3.1607,3.1621,3.1623,3.162,3.1621,3.145,3.1603,3.1602,3.1601,3.16,3.16,3.1276,3.1315,3.134,3.1383,3.1404,3.1431,3.1468,3.1477,3.1516,3.156,3.1554,3.1607,3.1632,3.1683,3.17,3.1741,3.1721,3.1741,3.1746,3.1751,3.1756,3.1615,3.1748,3.1748,3.1748,3.1747,3.1747,0,3.1408,3.1423,3.1463,3.1503,3.1537,3.1517,3.1547,3.1577,3.1624,3.1649,3.1684,3.1738,3.1781,3.1794,3.1835,3.1865,3.1858,3.1876,3.1873,3.1876,3.1772,3.1755,3.1881,3.1881,3.1881,3.1881,3.1881,3.1881,3.1481,3.1546,3.1548,3.1622,3.1637,3.1688,3.1706,3.1731,3.175,3.1812,3.1847,3.1855,3.1875,3.1918,3.1956,3.1959,3.1974,3.1996,3.1995,3.1897,3.1884,3.1871,3.1855,3.2,3.2,3.2096,3.2097,3.2097]},{"header":{"parameterUnit":"m.s-1","parameterCategory":1,"la1":30.2991,"la2":30.254,"lo1":-89.0895,"lo2":-89.0444,"dy":0.0017,"dx":0.0017,"nx":28,"ny":28,"refTime":"2025-05-17T03:00:00:Z","depth":0,"parameterNumber":3,"parameterNumberName":"V-component_of_WINDS"},"data":[0,0,0,0,0,0,0,0,0,0,0,0,0,0,0,0,0,0,0,0,0,0,0,0,0,0,0,0,0,0,0,0,0,0,0,0,0,0,0,0,0,0,0,0,0,0,0,0,0,0,0,0,0,0,0,0,0,0,4.3611,4.3612,0,4.3667,4.3667,4.3668,4.3636,4.3634,4.3633,4.3631,4.3684,4.3687,4.3689,0,0,0,0,0,0,0,0,0,0,0,0,0,4.3473,4.3476,4.3611,4.3612,4.3613,4.3667,4.3667,4.3668,4.3636,4.3634,4.3632,4.363,4.3683,4.3686,4.369,0,0,0,0,0,0,0,0,0,0,0,0,0,4.3531,4.3477,4.3611,4.3603,4.3603,4.3666,4.3667,4.3668,4.3636,4.3634,4.3632,4.3629,4.3682,4.3686,4.369,4.3763,0,0,4.3703,4.3705,0,0,0,0,0,0,0,0,4.3528,4.3537,4.3604,4.3604,4.3604,4.3642,4.3638,4.37,4.3637,4.3624,4.3631,4.3628,4.3671,4.3676,4.3692,4.3766,4.3768,4.3704,4.3706,4.3708,4.3709,0,0,0,0,0,0,0,4.3524,4.3534,4.3633,4.3605,4.3605,4.3595,4.3601,4.365,4.366,4.3625,4.3622,4.363,4.3671,4.3688,4.3693,4.3769,4.3703,4.3707,4.371,4.3712,4.3905,4.3907,0,0,0,0,0,0,4.3521,4.3531,4.3631,4.3635,4.356,4.36,4.3606,4.3632,4.3659,4.3661,4.3631,4.3628,4.3682,4.3688,4.3695,4.3782,4.3708,4.3712,4.3714,4.3902,4.3905,4.3908,0,0,0,0,0,0,4.3519,4.3531,4.3629,4.3582,4.3594,4.3605,4.3634,4.3634,4.3651,4.3665,4.3666,4.3647,4.368,4.3689,4.3747,4.3783,4.3714,4.3718,4.3899,4.3903,4.3907,4.3957,0,0,0,0,0,0,4.3515,4.353,4.3559,4.3583,4.3597,4.3682,4.3636,4.3637,4.3659,4.3655,4.3679,4.3681,4.3679,4.374,4.3751,4.3788,4.3721,4.3896,4.3901,4.3905,4.3952,4.3962,4.3971,0,0,0,0,0,4.351,4.357,4.3561,4.3573,4.3633,4.3684,4.3691,4.3689,4.3662,4.3691,4.3699,4.368,4.3778,4.3747,4.3758,4.3797,4.3893,4.3899,4.3905,4.3948,4.396,4.3971,0,0,0,0,0,0,4.3548,4.3573,4.3563,4.3633,4.3657,4.3678,4.3714,4.3702,4.3732,4.3727,4.3721,4.3727,4.3787,4.3798,4.3763,4.3869,4.3831,4.3839,4.386,4.3872,4.3881,4.3877,4.3725,0,0,0,0,0,4.3565,4.3606,4.3624,4.3684,4.3697,4.3704,4.3726,4.3721,4.3745,4.3755,4.3767,4.379,4.3826,4.3849,4.3883,4.3954,4.3958,4.3986,4.3995,4.4003,4.401,4.4048,4.406,4.3927,4.3927,4.3927,0,0,4.36,4.3618,4.3644,4.3693,4.3711,4.3751,4.3712,4.3757,4.3787,4.3761,4.3817,4.3827,4.3852,4.3917,4.3946,4.3927,4.4048,4.401,4.4016,4.4019,4.4055,4.4068,4.4079,4.3931,4.393,4.3929,0,0,4.3684,4.3703,4.3755,4.3774,4.3802,4.3806,4.3818,4.3842,4.3848,4.3905,4.3886,4.3921,4.3982,4.4001,4.4018,4.4109,4.4093,4.412,4.4168,4.4205,4.4216,4.4225,4.4258,4.4269,4.4127,4.4127,4.4127,0,4.3724,4.3786,4.3783,4.3829,4.3851,4.383,4.3882,4.39,4.3937,4.3952,4.3931,4.4008,4.4023,4.4092,4.4114,4.4129,4.4142,4.4117,4.4215,4.4224,4.4233,4.4264,4.4276,4.413,4.413,4.413,4.4129,0,4.3833,4.3876,4.3914,4.3952,4.3978,4.4027,4.403,4.4056,4.4049,4.4055,4.4112,4.413,4.4166,4.4182,4.4175,4.425,4.4237,4.4216,4.4178,4.4249,4.4278,4.4289,4.4135,4.4134,4.4133,4.4132,0,0,4.3943,4.3979,4.3993,4.401,4.404,4.4072,4.4119,4.4157,4.4179,4.4205,4.4244,4.4296,4.4276,4.4296,4.4291,4.4324,4.4394,4.4298,4.4298,4.4315,4.4477,4.4493,4.4507,4.4384,4.4386,4.4388,4.4475,0,4.4029,4.4114,4.4113,4.4191,4.423,4.4211,4.4252,4.4274,4.428,4.4314,4.432,4.4357,4.4328,4.434,4.4372,4.4379,4.4427,4.4373,4.4419,4.4421,4.4414,4.4522,4.454,4.4621,4.4486,4.4488,4.4489,0,4.4142,4.4173,4.4256,4.4279,4.4296,4.4333,4.4367,4.4399,4.4423,4.4425,4.4447,4.4437,4.4484,4.4444,4.4508,4.4471,4.449,4.4496,4.4499,4.4504,4.446,4.453,4.4647,4.466,4.4507,4.4506,4.4504,0,4.4214,4.4277,4.4334,4.4349,4.4378,4.4405,4.4418,4.4439,4.4462,4.449,4.4505,4.4538,4.4556,4.4582,4.458,4.4552,4.4645,4.4605,4.4647,4.4647,4.4668,4.4667,4.479,4.4679,4.4679,4.4679,4.4679,0,4.4311,4.4362,4.4367,4.4403,4.4459,4.4456,4.4511,4.4521,4.454,4.4576,4.4561,4.4595,4.4591,4.4625,4.4623,4.4676,4.4684,4.4687,4.4686,4.4688,4.4688,4.4701,4.4695,4.4682,4.4682,4.4681,4.468,0,4.4402,4.4407,4.4469,4.4491,4.4498,4.4539,4.4557,4.459,4.4595,4.4641,4.4651,4.4659,4.4698,4.4699,4.4743,4.4742,4.4806,4.4799,4.4799,4.4797,4.4839,4.4836,4.4976,4.4994,4.4871,4.4872,4.4873,0,4.4463,4.4502,4.453,4.4553,4.4569,4.4607,4.463,4.4628,4.4652,4.4682,4.4711,4.4749,4.4779,4.4841,4.4849,4.4883,4.4876,4.4923,4.4881,4.4882,4.4877,4.4875,4.4878,4.4931,4.4932,4.4934,4.4934,0,4.4572,4.4573,4.4608,4.4644,4.4672,4.4699,4.4725,4.4745,4.4745,4.4773,4.4814,4.4837,4.4882,4.4919,4.4952,4.4963,4.4949,4.4948,4.4959,4.4962,4.4961,4.4962,4.4821,4.4944,4.4943,4.4943,4.4942,4.4942,4.465,4.4684,4.4709,4.4748,4.4767,4.4791,4.4824,4.4833,4.4867,4.4905,4.4901,4.4946,4.4967,4.501,4.5024,4.5058,4.5041,4.5058,4.5062,4.5066,4.5071,4.4955,4.5063,4.5063,4.5063,4.5062,4.5062,0,4.4758,4.4773,4.4809,4.4846,4.4877,4.4862,4.4889,4.4915,4.4955,4.4977,4.5008,4.5053,4.5089,4.5101,4.5135,4.516,4.5154,4.5169,4.5167,4.517,4.5084,4.507,4.5173,4.5173,4.5173,4.5173,4.5173,4.5173,4.4818,4.4875,4.4878,4.4944,4.4958,4.5003,4.502,4.5042,4.506,4.5112,4.5142,4.515,4.5168,4.5203,4.5235,4.5237,4.5251,4.5268,4.5268,4.5187,4.5176,4.5165,4.5153,4.5271,4.5271,4.5351,4.5352,4.5353]}]]